| time (UTC) | temp C | wind direction | speed KPH | gust KPH | rain 1hr cm | rain 24hr cm | rain mn cm | humidity % | barometer mb |
| 20260509013021 | 17 | 248 | 0.0 | 1.6 | 0.00 | 0.00 | 0.00 | 58 | 1008.6 |
| 20260509011513 | 18 | 257 | 0.0 | 14.5 | 0.00 | 0.00 | 0.00 | 52 | 1008.8 |
| 20260509010013 | 18 | 233 | 0.0 | 6.4 | 0.00 | 0.00 | 0.00 | 53 | 1008.7 |
| 20260509004517 | 18 | 247 | 0.0 | 11.3 | 0.00 | 0.00 | 0.00 | 49 | 1008.6 |
| 20260509003011 | 18 | 241 | 0.0 | 4.8 | 0.00 | 0.00 | 0.00 | 48 | 1008.3 |
| 20260509001511 | 18 | 125 | 0.0 | 6.4 | 0.00 | 0.00 | 0.00 | 47 | 1008.4 |
| 20260509000010 | 19 | 243 | 1.6 | 14.5 | 0.00 | 0.00 | 0.00 | 46 | 1008.4 |
| 20260508234510 | 19 | 238 | 3.2 | 14.5 | 0.00 | 0.00 | 0.00 | 46 | 1008.5 |
| 20260508233009 | 19 | 195 | 1.6 | 9.7 | 0.00 | 0.00 | 0.00 | 47 | 1008.4 |
| 20260508231508 | 19 | 219 | 0.0 | 12.9 | 0.00 | 0.00 | 0.00 | 46 | 1008.5 |
| 20260508230008 | 20 | 153 | 1.6 | 12.9 | 0.00 | 0.00 | 0.00 | 45 | 1008.4 |
| 20260508224511 | 20 | 172 | 0.0 | 16.1 | 0.00 | 0.00 | 0.00 | 45 | 1008.3 |
| 20260508223006 | 20 | 141 | 1.6 | 19.3 | 0.00 | 0.00 | 0.00 | 44 | 1008.2 |
| 20260508221508 | 20 | 212 | 4.8 | 14.5 | 0.00 | 0.00 | 0.00 | 43 | 1008.3 |
| 20260508220005 | 20 | 205 | 4.8 | 20.9 | 0.00 | 0.00 | 0.00 | 42 | 1008.1 |
| 20260508214513 | 21 | 64 | 4.8 | 19.3 | 0.00 | 0.00 | 0.00 | 42 | 1008.3 |
| 20260508213002 | 21 | 238 | 8.0 | 17.7 | 0.00 | 0.00 | 0.00 | 41 | 1008.4 |
| 20260508211600 | 21 | 147 | 6.4 | 22.5 | 0.00 | 0.00 | 0.00 | 41 | 1008.5 |
| 20260508210059 | 21 | 214 | 9.7 | 19.3 | 0.00 | 0.00 | 0.00 | 39 | 1008.7 |
| 20260508204600 | 20 | 229 | 3.2 | 16.1 | 0.00 | 0.00 | 0.00 | 41 | 1009.0 |
| 20260508203054 | 21 | 307 | 4.8 | 24.1 | 0.00 | 0.00 | 0.00 | 41 | 1009.2 |
| 20260508201553 | 21 | 257 | 1.6 | 22.5 | 0.00 | 0.00 | 0.00 | 41 | 1009.4 |
| 20260508200108 | 20 | 272 | 4.8 | 20.9 | 0.00 | 0.00 | 0.00 | 40 | 1009.7 |
| 20260508194552 | 21 | 236 | 9.7 | 25.7 | 0.00 | 0.00 | 0.00 | 38 | 1009.7 |
| 20260508193127 | 23 | 198 | 3.2 | 12.9 | 0.00 | 0.00 | 0.00 | 38 | 1009.8 |
| 20260508191547 | 21 | 245 | 6.4 | 22.5 | 0.00 | 0.00 | 0.00 | 38 | 1010.1 |
| 20260508190046 | 22 | 267 | 4.8 | 20.9 | 0.00 | 0.00 | 0.00 | 37 | 1010.2 |
| 20260508184544 | 21 | 234 | 6.4 | 19.3 | 0.00 | 0.00 | 0.00 | 39 | 1010.3 |
| 20260508183054 | 21 | 221 | 3.2 | 20.9 | 0.00 | 0.00 | 0.00 | 39 | 1010.7 |
| 20260508181549 | 21 | 255 | 4.8 | 27.4 | 0.00 | 0.00 | 0.00 | 37 | 1011.0 |
| 20260508180038 | 21 | 264 | 9.7 | 27.4 | 0.00 | 0.00 | 0.00 | 37 | 1011.2 |
| 20260508174536 | 21 | 250 | 9.7 | 19.3 | 0.00 | 0.00 | 0.00 | 36 | 1011.4 |
| 20260508173034 | 21 | 238 | 8.0 | 20.9 | 0.00 | 0.00 | 0.00 | 38 | 1011.7 |
| 20260508171531 | 21 | 261 | 4.8 | 20.9 | 0.00 | 0.00 | 0.00 | 40 | 1012.0 |
| 20260508170028 | 21 | 173 | 4.8 | 20.9 | 0.00 | 0.00 | 0.00 | 42 | 1012.3 |
| 20260508164527 | 20 | 242 | 0.0 | 17.7 | 0.00 | 0.00 | 0.00 | 45 | 1012.6 |
| 20260508163026 | 20 | 262 | 0.0 | 20.9 | 0.00 | 0.00 | 0.00 | 45 | 1013.0 |
| 20260508161521 | 20 | 248 | 4.8 | 14.5 | 0.00 | 0.00 | 0.00 | 44 | 1013.1 |
| 20260508160019 | 20 | 81 | 1.6 | 17.7 | 0.00 | 0.00 | 0.00 | 45 | 1013.2 |
| 20260508154538 | 18 | 258 | 8.0 | 22.5 | 0.00 | 0.00 | 0.00 | 46 | 1013.5 |
| 20260508153015 | 18 | 266 | 6.4 | 19.3 | 0.00 | 0.00 | 0.00 | 46 | 1013.6 |
| 20260508151514 | 17 | 243 | 6.4 | 16.1 | 0.00 | 0.00 | 0.00 | 49 | 1013.9 |
| 20260508150011 | 17 | 266 | 3.2 | 17.7 | 0.00 | 0.00 | 0.00 | 48 | 1014.0 |
| 20260508144508 | 17 | 237 | 9.7 | 20.9 | 0.00 | 0.00 | 0.00 | 48 | 1013.9 |
| 20260508143006 | 16 | 237 | 4.8 | 20.9 | 0.00 | 0.00 | 0.00 | 50 | 1014.1 |
| 20260508141503 | 16 | 238 | 3.2 | 17.7 | 0.00 | 0.00 | 0.00 | 51 | 1014.1 |
| 20260508140021 | 15 | 254 | 4.8 | 20.9 | 0.00 | 0.00 | 0.00 | 50 | 1014.3 |
| 20260508134518 | 15 | 226 | 1.6 | 17.7 | 0.00 | 0.00 | 0.00 | 52 | 1014.3 |
| 20260508133024 | 14 | 248 | 3.2 | 14.5 | 0.00 | 0.00 | 0.00 | 52 | 1014.4 |
| 20260508131513 | 13 | 266 | 3.2 | 12.9 | 0.00 | 0.00 | 0.00 | 52 | 1014.3 |
| 20260508130014 | 13 | 255 | 1.6 | 14.5 | 0.00 | 0.00 | 0.00 | 53 | 1014.3 |
| 20260508124508 | 12 | 171 | 1.6 | 17.7 | 0.00 | 0.00 | 0.00 | 55 | 1014.3 |
| 20260508123002 | 11 | 268 | 0.0 | 14.5 | 0.00 | 0.00 | 0.00 | 59 | 1014.2 |
| 20260508121557 | 10 | 232 | 4.8 | 14.5 | 0.00 | 0.00 | 0.00 | 61 | 1014.1 |
| 20260508120055 | 10 | 221 | 3.2 | 16.1 | 0.00 | 0.00 | 0.00 | 64 | 1014.2 |
| 20260508114554 | 8 | 251 | 0.0 | 12.9 | 0.00 | 0.00 | 0.00 | 66 | 1014.0 |
| 20260508113054 | 8 | 235 | 0.0 | 0.0 | 0.00 | 0.00 | 0.00 | 67 | 1013.8 |
| 20260508111554 | 8 | 240 | 0.0 | 0.0 | 0.00 | 0.00 | 0.00 | 65 | 1013.9 |
| 20260508110051 | 9 | 153 | 0.0 | 0.0 | 0.00 | 0.00 | 0.00 | 64 | 1013.6 |
| 20260508104550 | 9 | 238 | 0.0 | 8.0 | 0.00 | 0.00 | 0.00 | 63 | 1013.6 |
| 20260508103055 | 9 | 210 | 1.6 | 9.7 | 0.00 | 0.00 | 0.00 | 63 | 1013.6 |
| 20260508101549 | 9 | 251 | 0.0 | 9.7 | 0.00 | 0.00 | 0.00 | 63 | 1013.6 |
| 20260508100148 | 9 | 218 | 1.6 | 6.4 | 0.00 | 0.00 | 0.00 | 63 | 1013.6 |
| 20260508094601 | 8 | 236 | 0.0 | 0.0 | 0.00 | 0.00 | 0.00 | 65 | 1013.6 |
| 20260508093047 | 8 | 245 | 0.0 | 0.0 | 0.00 | 0.00 | 0.00 | 65 | 1013.7 |
| 20260508091547 | 8 | 218 | 0.0 | 8.0 | 0.00 | 0.00 | 0.00 | 65 | 1013.5 |
| 20260508090108 | 8 | 198 | 0.0 | 8.0 | 0.00 | 0.00 | 0.00 | 64 | 1013.6 |
| 20260508084547 | 9 | 238 | 1.6 | 9.7 | 0.00 | 0.00 | 0.00 | 64 | 1013.5 |
| 20260508083042 | 8 | 237 | 0.0 | 8.0 | 0.00 | 0.00 | 0.00 | 64 | 1013.5 |
| 20260508081559 | 8 | 240 | 0.0 | 11.3 | 0.00 | 0.00 | 0.00 | 64 | 1013.5 |
| 20260508080041 | 8 | 245 | 0.0 | 3.2 | 0.00 | 0.00 | 0.00 | 64 | 1013.5 |
| 20260508074545 | 8 | 241 | 0.0 | 0.0 | 0.00 | 0.00 | 0.00 | 64 | 1013.5 |
| 20260508073049 | 9 | 235 | 0.0 | 3.2 | 0.00 | 0.00 | 0.00 | 63 | 1013.4 |
| 20260508071537 | 9 | 238 | 0.0 | 8.0 | 0.00 | 0.00 | 0.00 | 61 | 1013.5 |
| 20260508070036 | 9 | 248 | 1.6 | 8.0 | 0.00 | 0.00 | 0.00 | 61 | 1013.5 |
| 20260508064536 | 9 | 248 | 0.0 | 0.0 | 0.00 | 0.00 | 0.00 | 60 | 1013.9 |
| 20260508063036 | 10 | 248 | 0.0 | 8.0 | 0.00 | 0.00 | 0.00 | 59 | 1014.1 |
| 20260508061538 | 10 | 240 | 1.6 | 6.4 | 0.00 | 0.00 | 0.00 | 58 | 1014.2 |
| 20260508060032 | 10 | 251 | 1.6 | 8.0 | 0.00 | 0.00 | 0.00 | 57 | 1014.4 |
| 20260508054535 | 10 | 236 | 3.2 | 11.3 | 0.00 | 0.00 | 0.00 | 56 | 1014.3 |
| 20260508053033 | 10 | 259 | 0.0 | 9.7 | 0.00 | 0.00 | 0.00 | 56 | 1014.3 |
| 20260508051524 | 10 | 238 | 0.0 | 8.0 | 0.00 | 0.00 | 0.00 | 57 | 1014.2 |
| 20260508050023 | 9 | 200 | 0.0 | 0.0 | 0.00 | 0.00 | 0.00 | 59 | 1014.1 |
| 20260508044521 | 9 | 239 | 0.0 | 0.0 | 0.00 | 0.00 | 0.00 | 60 | 1014.1 |
| 20260508043020 | 9 | 224 | 0.0 | 4.8 | 0.00 | 0.00 | 0.00 | 60 | 1014.2 |
| 20260508041521 | 9 | 199 | 0.0 | 3.2 | 0.00 | 0.00 | 0.00 | 62 | 1014.1 |
| 20260508040017 | 9 | 150 | 0.0 | 0.0 | 0.00 | 0.00 | 0.00 | 62 | 1014.1 |
| 20260508034517 | 9 | 150 | 0.0 | 0.0 | 0.00 | 0.00 | 0.00 | 61 | 1014.1 |
| 20260508033015 | 9 | 174 | 0.0 | 0.0 | 0.00 | 0.00 | 0.00 | 61 | 1014.2 |
| 20260508031514 | 9 | 245 | 0.0 | 0.0 | 0.00 | 0.00 | 0.00 | 61 | 1014.1 |
| 20260508030014 | 9 | 256 | 0.0 | 0.0 | 0.00 | 0.00 | 0.00 | 61 | 1014.2 |
| 20260508024532 | 10 | 256 | 0.0 | 0.0 | 0.00 | 0.00 | 0.00 | 61 | 1014.1 |
| 20260508023014 | 9 | 256 | 0.0 | 0.0 | 0.00 | 0.00 | 0.00 | 61 | 1014.1 |
| 20260508021511 | 9 | 256 | 0.0 | 0.0 | 0.00 | 0.00 | 0.00 | 60 | 1014.0 |
| 20260508020011 | 10 | 256 | 0.0 | 0.0 | 0.00 | 0.00 | 0.00 | 59 | 1014.0 |
| 20260508014511 | 10 | 256 | 0.0 | 0.0 | 0.00 | 0.00 | 0.00 | 57 | 1014.0 |